Hourly Weather Roundup
Issued by NWS Central Illinois

Home | Current Version | Previous Version | Text Only | Print | Product List | Glossary On
Versions: 1 2 3 4 5 6 7 8 9 10 11 12 13 14 15 16 17 18 19 20 21 22 23 24 25 26 27 28 29 30 31 32 33 34 35 36 37 38 39 40 41 42 43 44 45 46 47 48 49 50
000
NZUS43 KILX 030010
HWRILX

AREA WEATHER ROUNDUP
NATIONAL WEATHER SERVICE, LINCOLN IL
600 PM CST MON MAR 02 2015


CITY           SKY/WX    TMP DP  RH WIND       PRES   REMARKS
BLOOMINGTON    PTCLDY    24  19  81 S7        30.39S WCI  16
6HR MIN TEMP:  24; 6HR MAX TEMP:  28;

CHAMPAIGN      MOCLDY    23  17  78 E6        30.38F WCI  16
6HR MIN TEMP:  23; 6HR MAX TEMP:  26;

DECATUR        PTCLDY    26  20  77 E7        30.38F WCI  18
6HR MIN TEMP:  26; 6HR MAX TEMP:  28;

FLORA          CLOUDY    29  20  69 NE6       30.39F WCI  23
6HR MIN TEMP:  29; 6HR MAX TEMP:  32;

GALESBURG      CLOUDY    29  20  69 SE5       30.35F WCI  23
JACKSONVILLE   MOCLDY    30  23  74 E8        30.36F WCI  22
6HR MIN TEMP:  29; 6HR MAX TEMP:  33; 6HR PCP:  0.02;

LACON          CLOUDY    25  18  76 SE6       30.39R WCI  18
6HR MIN TEMP:  25; 6HR MAX TEMP:  28;

LAWRENCEVILLE  CLOUDY    30  20  66 NE7       30.40F WCI  23
6HR MIN TEMP:  30; 6HR MAX TEMP:  34;

LITCHFIELD     MOCLDY    30  16  56 E6        30.36R WCI  24
$$


CITY           SKY/WX    TMP DP  RH WIND       PRES   REMARKS
LINCOLN        MOCLDY    28  23  81 SE3       30.40F
6HR MIN TEMP:  28; 6HR MAX TEMP:  31; 6HR PCP:  0.06;

MACOMB         MOCLDY    27  21  76 SE8       30.37F WCI  19
MATTOON        PTCLDY    26  18  71 N6        30.38F WCI  19
6HR MIN TEMP:  26; 6HR MAX TEMP:  31;

MT CARMEL AP   CLOUDY    32  19  59 NE7       30.39F WCI  26
OLNEY-NOBLE AP CLOUDY    30  19  64 NE3       30.39F
PARIS          PTCLDY    28  21  75 CALM      30.40F
6HR MIN TEMP:  25; 6HR MAX TEMP:  30;

PEORIA         CLOUDY    29  18  63 S7        30.39R WCI  22
6HR MIN TEMP:  29; 6HR MAX TEMP:  36;

PONTIAC        CLOUDY    25  20  82 SE5       30.40S WCI  19
RANTOUL        MOCLDY    26  19  77 CALM      30.39F
6HR MIN TEMP:  26; 6HR MAX TEMP:  28;

ROBINSON       MOCLDY    30  23  75 NE3       30.41F
6HR MIN TEMP:  29; 6HR MAX TEMP:  33;

SPRINGFIELD    MOCLDY    29  20  69 E6        30.38F WCI  23
6HR MIN TEMP:  29; 6HR MAX TEMP:  35; 6HR PCP: TRACE;

TAYLORVILLE    PTCLDY    28  19  69 E5        30.38S WCI  23
$$

...REGIONAL REPORTS...


CITY           SKY/WX    TMP DP  RH WIND       PRES   REMARKS
CHICAGO O`HARE CLOUDY    28  19  69 SE9       30.36F WCI  19
KANKAKEE       MOCLDY    25  19  76 SE3       30.40F
MOLINE         CLOUDY    27  17  66 SE6       30.35F WCI  20
MOUNT VERNON   MOCLDY    30  18  59 E5        30.38S WCI  25
PITTSFIELD     CLOUDY    32  20  62 E8        30.34F WCI  25
QUINCY         CLOUDY    31  19  61 SE10      30.31F WCI  22
ROCKFORD       CLOUDY    25  15  66 S10       30.37F WCI  15
$$


CITY           SKY/WX    TMP DP  RH WIND       PRES   REMARKS
BURLINGTON     MOCLDY    28  17  63 E6        30.33F WCI  22
CEDAR RAPIDS   CLOUDY    25  14  63 SE8       30.31F WCI  16
DES MOINES     CLOUDY    32  17  54 E10       30.22F WCI  24
KIRKSVILLE     CLOUDY    32  22  66 E12       30.25F WCI  23
OTTUMWA        CLOUDY    29  18  63 E9        30.27F WCI  20
ST LOUIS       MOCLDY    33  18  53 E13       30.35F WCI  24
$$


CITY           SKY/WX    TMP DP  RH WIND       PRES   REMARKS
TERRE HAUTE    PTCLDY    30  16  56 CALM      30.40F
EVANSVILLE     CLOUDY    34  22  61 N5        30.38F WCI  30
INDIANAPOLIS   MOCLDY    27  14  58 SE10      30.40F WCI  17
LAFAYETTE      CLOUDY    26  16  65 S3        30.42F
MADISON        CLOUDY    26  11  52 S8        30.32F WCI  18
MILWAUKEE      MOCLDY    26   9  48 S8        30.37F WCI  18
$$




USA.gov is the U.S. government's official web portal to all federal, state and local government web resources and services.